Theta_e
311 310 311 310 309 307 306 307 307 308 311 315 315 315 314 312 312 312 311 310 309 310 309 310 312 311 312 317 316 315 320 319 318 318 318 315 315 314 311 313 312 311 312 312 309
311 311 311 310 309 308 307 307 307 307 310 313 313 315 314 312 312 313 310 311 310 310 310 312 315 313 316 315 317 318 320 319 316 316 317 317 314 313 314 316 315 314 314 311 310
312 310 310 309 309 309 308 308 308 307 309 312 313 315 315 314 315 313 312 316 315 311 310 310 311 315 317 314 315 316 320 315 315 314 314 315 315 311 314 316 313 312 312 311 312
313 310 309 309 309 310 310 310 308 308 309 311 313 315 313 312 317 311 313 316 313 311 310 311 315 317 318 318 313 317 315 314 314 313 313 314 312 314 312 314 311 311 312 313 309
314 310 309 308 309 311 312 311 310 308 309 311 313 315 315 316 313 312 314 314 312 310 309 311 314 315 317 316 314 315 315 312 311 311 311 311 313 311 312 311 313 313 312 309 304
314 310 309 307 309 311 313 312 311 309 310 311 313 316 314 318 312 312 316 313 312 309 309 311 312 312 316 315 314 312 312 313 310 310 309 312 312 310 312 313 311 311 308 305 304
313 311 309 307 308 311 313 313 312 310 310 312 315 315 317 316 311 315 313 310 310 309 310 307 308 313 313 316 310 310 313 315 313 312 310 310 313 312 313 311 309 309 306 304 303
315 311 310 307 308 310 313 313 313 311 310 312 315 315 317 312 312 315 311 311 308 308 307 305 306 310 311 310 312 313 314 313 313 312 309 313 313 313 311 307 309 307 304 303 302
317 311 310 306 307 308 310 314 314 310 311 315 315 315 317 314 314 313 310 307 306 307 306 305 307 310 311 316 316 316 315 313 312 312 312 313 315 313 308 307 307 304 302 301 301
317 311 310 305 304 306 308 314 313 310 311 314 314 315 314 315 313 311 308 307 308 308 310 312 311 314 315 315 316 317 316 313 312 312 313 314 314 311 306 305 303 302 301 300 300
317 311 309 302 303 305 307 312 311 315 309 314 313 313 313 313 310 309 307 307 309 313 313 312 309 317 314 312 313 313 314 314 311 313 313 312 311 307 305 301 301 300 299 298 299
316 310 308 301 302 305 306 314 311 309 314 311 313 313 312 310 311 310 308 312 312 314 314 311 307 312 311 311 312 313 312 310 313 312 309 309 307 304 304 298 298 299 297 297 298
318 311 305 301 303 306 307 309 310 311 313 312 312 314 313 308 309 310 308 309 312 313 313 308 306 309 311 312 311 309 311 313 311 308 307 306 305 305 302 299 297 297 297 297 296
318 312 303 300 304 307 310 307 311 309 317 316 313 313 308 307 310 305 303 309 311 311 309 306 309 310 310 311 309 311 309 308 305 305 305 305 304 306 306 300 297 297 296 296 295
318 314 302 300 302 310 307 309 310 305 332 314 315 308 307 309 309 309 304 307 309 307 304 306 308 309 311 309 308 312 304 304 304 305 306 305 306 309 307 300 296 296 296 295 295
318 316 302 302 303 306 306 311 304 320 328 316 314 313 311 307 308 309 307 306 306 308 307 306 305 308 309 307 305 301 303 303 305 306 307 303 299 302 300 295 295 296 295 294 294
319 316 301 300 305 306 310 305 322 324 316 315 312 311 309 310 309 308 307 308 307 304 307 308 309 305 304 306 305 301 304 303 306 308 306 301 298 299 296 295 295 294 294 293 293
318 314 301 301 305 306 307 315 326 322 320 310 311 310 312 308 308 306 304 307 305 309 308 307 306 309 303 302 301 303 304 300 300 302 302 299 299 300 295 295 295 294 293 293 293
317 307 301 302 305 308 306 315 324 319 314 310 311 313 308 310 307 305 304 304 306 306 305 304 305 300 297 299 300 304 303 299 297 298 299 298 298 299 295 295 294 293 292 292 291
311 302 301 304 306 305 306 314 312 312 311 311 317 314 316 312 311 306 303 304 303 300 299 304 302 300 297 297 295 296 297 299 298 296 296 296 295 295 294 294 293 292 292 291 292
306 301 301 306 309 312 305 307 306 304 311 312 313 313 311 311 310 308 304 302 301 296 299 298 299 298 295 295 296 294 294 294 292 293 295 295 295 295 294 293 292 291 291 291 292
302 304 305 310 312 312 308 305 304 307 308 310 310 310 311 311 308 305 305 303 299 296 297 294 296 296 295 293 292 293 295 292 292 292 292 293 293 294 294 293 292 290 290 291 292
306 303 308 309 311 309 308 309 309 311 310 309 309 309 308 307 308 306 305 296 295 295 294 294 294 297 294 293 292 292 292 292 291 291 293 294 294 294 294 292 291 290 291 292 291
305 306 310 310 311 310 313 311 311 310 310 309 307 304 301 302 300 301 301 294 293 293 294 294 293 295 296 295 292 291 291 291 292 293 293 294 294 294 292 290 290 291 290 290 289
306 308 306 313 310 312 311 313 313 312 308 306 302 303 302 302 301 301 299 295 294 293 295 293 293 293 293 293 293 292 291 291 291 291 291 292 292 292 291 289 290 290 290 288 289
316 307 305 309 313 310 310 310 310 311 307 306 304 301 300 305 304 302 298 297 296 293 293 293 293 292 293 292 292 292 292 292 292 292 292 294 294 291 290 290 290 289 287 288 287
307 302 307 317 312 312 316 313 314 309 307 306 303 301 301 303 301 297 297 298 295 294 293 293 292 293 296 291 291 292 292 292 291 290 290 289 290 289 290 290 289 287 288 285 283
Wind_Speed
20 21 23 24 26 27 27 27 29 33 26 22 22 20 8 7 11 11 10 7 10 12 9 5 1 3 2 3 3 1 2 2 1 2 5 2 6 2 2 8 4 3 5 16 20
20 21 23 25 26 27 28 28 29 32 28 22 24 18 6 7 10 17 10 13 12 10 6 7 4 4 2 2 1 2 2 3 1 2 7 12 5 8 5 12 4 8 13 17 23
19 21 24 26 27 27 29 28 28 30 29 21 21 12 4 7 2 5 11 16 12 9 4 3 2 2 1 1 1 0 2 3 1 3 5 10 11 1 7 9 13 14 18 19 22
18 21 24 25 26 27 28 28 29 30 30 22 21 8 8 4 1 5 13 16 8 4 3 4 4 2 1 2 1 5 3 3 1 1 5 9 8 8 4 10 10 11 12 18 21
18 21 23 25 27 28 28 27 28 31 29 22 20 7 3 5 2 5 13 10 6 2 6 3 2 1 3 3 4 3 4 2 4 7 7 7 6 3 2 8 14 19 17 19 19
17 20 23 26 27 28 28 27 30 33 27 20 18 4 3 4 1 6 11 7 11 8 5 5 2 1 1 2 3 2 9 12 2 5 1 5 5 4 7 13 19 15 15 17 18
18 20 23 26 27 27 28 26 29 31 26 19 10 4 6 5 1 6 9 8 10 6 2 1 0 1 1 3 2 3 7 6 6 4 5 5 4 2 6 18 15 14 15 16 17
18 20 23 26 27 27 27 27 30 27 20 19 5 4 4 1 2 7 9 2 7 7 4 5 3 3 2 3 2 3 3 6 7 5 7 10 9 12 16 16 14 13 13 15 17
19 20 23 25 26 26 25 27 24 23 12 9 4 4 3 0 2 8 10 4 4 5 5 3 2 3 1 5 5 3 9 14 11 2 3 5 14 11 17 12 13 13 13 13 13
18 19 22 25 25 25 24 24 21 11 13 4 6 3 1 1 5 8 6 7 4 3 3 3 3 2 3 8 8 12 10 10 19 6 12 8 12 19 12 16 12 11 13 16 17
20 19 21 24 22 20 23 13 9 2 12 2 6 3 4 7 1 5 8 2 2 2 6 4 5 3 5 6 7 8 12 19 20 17 11 13 18 19 10 11 12 13 15 16 16
20 19 20 21 18 14 13 7 3 1 8 1 1 5 5 4 1 5 8 2 4 8 5 5 6 2 4 4 6 11 16 19 12 5 13 19 17 6 11 12 12 11 17 18 18
19 19 19 18 12 8 12 6 1 2 3 3 1 2 2 2 2 4 6 1 1 6 2 4 4 3 2 7 8 13 10 11 14 18 17 15 11 3 13 9 12 12 15 18 21
18 18 18 13 2 5 3 7 2 4 3 2 1 2 1 0 1 2 3 2 2 2 2 7 2 1 5 6 3 10 7 11 18 19 15 16 9 5 13 6 12 13 16 19 23
16 16 18 8 2 2 2 2 4 2 5 2 2 1 1 1 2 2 2 2 4 2 3 2 2 3 4 4 2 4 11 13 20 22 14 3 6 3 11 8 15 16 17 21 26
15 16 14 3 1 2 1 4 2 2 7 1 2 1 2 2 1 6 1 5 2 2 1 2 1 2 1 2 3 8 9 21 9 5 5 9 5 8 6 4 11 16 21 26 29
14 15 13 4 2 2 4 3 2 5 1 3 2 1 1 3 3 3 3 1 3 4 5 1 1 1 2 2 2 8 10 7 5 3 6 8 10 8 8 7 12 18 23 28 28
14 14 11 6 4 4 3 1 6 3 6 2 1 1 5 3 3 0 2 5 3 2 2 4 4 3 2 0 1 2 2 3 7 6 16 15 7 3 9 8 13 18 24 25 25
13 9 7 5 7 8 2 4 6 6 2 4 2 5 3 2 2 3 5 4 3 6 6 5 5 2 4 1 1 5 5 3 4 2 6 6 5 10 7 14 16 22 25 25 27
4 3 6 8 10 5 3 8 7 4 5 2 6 6 8 3 4 3 5 5 5 4 3 3 4 3 5 1 5 3 4 2 2 4 7 10 19 8 14 16 25 29 27 27 29
3 1 5 11 11 2 7 8 6 5 6 8 7 10 9 6 8 5 5 4 6 6 4 5 4 4 1 9 7 4 4 2 0 4 4 7 9 6 13 12 27 27 27 28 30
6 3 10 18 5 3 8 6 6 6 3 7 3 9 13 10 6 7 10 6 8 9 7 6 4 4 4 8 8 9 8 7 4 5 8 8 14 12 4 22 23 25 26 28 31
3 2 8 5 7 7 5 7 7 9 10 11 11 11 8 9 5 10 4 2 8 8 8 8 4 2 2 2 3 7 8 6 6 5 14 6 8 8 21 24 25 26 27 27 31
4 3 3 4 4 10 14 12 12 10 13 9 5 5 5 7 4 4 8 6 6 4 3 4 5 10 11 8 2 5 11 13 14 7 8 18 26 28 22 24 26 28 28 29 28
4 6 6 6 9 17 16 9 16 12 12 11 6 16 11 7 7 7 7 7 6 7 6 4 6 8 13 15 12 16 18 17 20 20 12 18 20 24 22 21 26 27 28 28 28
7 4 2 4 6 19 20 19 27 16 14 10 13 14 12 20 14 11 14 9 7 8 8 6 3 1 4 12 14 17 18 19 17 19 22 22 28 19 20 19 23 27 27 26 28
12 3 4 12 11 11 21 30 26 18 11 17 19 12 13 17 8 1 1 4 8 11 12 8 5 3 7 2 5 12 21 21 11 9 15 15 19 17 22 20 20 26 24 26 28
Wind_Direction
15 11 11 10 8 7 4 4 7 8 7 7 3 350 21 94 76 59 47 353 345 347 343 339 339 18 75 74 37 325 212 217 245 203 348 4 331 29 268 280 282 242 305 334 320
10 7 7 7 5 3 2 1 3 0 2 5 359 355 130 130 65 53 16 3 353 350 350 8 11 5 94 86 97 253 249 168 20 23 322 318 327 328 297 327 335 326 359 337 340
5 5 4 3 2 359 359 358 358 355 359 3 3 8 72 170 63 11 1 351 340 344 359 14 1 19 94 336 28 307 272 137 56 320 320 309 334 37 309 358 16 347 341 343 359
1 2 2 360 358 356 356 355 351 353 350 1 4 25 71 110 36 334 346 345 356 356 17 354 7 25 354 277 32 282 264 210 85 134 314 302 331 336 310 355 350 359 349 7 23
356 359 358 356 355 354 354 352 347 348 344 356 1 22 96 68 81 331 341 7 12 10 39 33 44 16 296 300 309 249 311 80 139 303 276 300 311 314 348 25 350 357 11 34 40
351 355 355 354 353 352 351 349 343 340 342 350 357 36 93 93 260 338 346 14 27 32 18 21 34 331 260 262 261 328 294 294 128 137 212 333 317 312 63 352 359 15 52 62 44
346 351 352 351 351 350 349 347 338 333 339 349 355 88 65 91 18 5 7 26 29 35 2 10 353 247 78 282 346 308 303 315 133 96 145 274 314 127 18 351 354 54 73 52 39
342 347 349 349 348 350 348 342 334 328 337 349 30 90 80 48 23 7 13 4 29 29 51 348 30 77 358 329 253 275 229 345 350 27 148 343 299 334 344 344 61 85 58 40 35
338 344 348 347 347 348 347 341 327 328 341 11 52 44 116 22 25 356 8 -0 9 27 46 342 61 43 206 325 288 19 320 327 326 350 44 343 296 321 351 30 87 67 52 37 24
337 341 346 347 347 348 348 342 327 330 355 86 51 122 96 287 312 340 354 6 25 342 312 350 6 306 33 8 317 306 311 307 309 292 341 308 284 318 21 99 89 66 38 23 13
337 339 346 347 347 352 355 4 358 354 35 47 310 279 309 314 266 19 352 21 24 52 359 27 325 333 13 332 287 296 297 304 311 329 339 325 317 331 81 86 71 51 29 13 4
336 339 346 346 345 2 18 66 82 275 305 127 264 290 278 318 13 21 3 12 26 353 336 313 288 35 305 296 305 309 305 308 307 323 334 318 322 74 110 80 58 46 17 12 4
336 341 347 344 343 6 62 73 123 161 273 310 217 263 278 257 93 358 3 50 21 337 232 259 309 358 326 304 320 310 309 317 304 317 296 331 301 111 125 75 43 38 14 10 6
333 341 345 348 42 12 66 3 131 160 277 223 183 172 222 64 131 7 19 318 230 267 254 268 341 298 298 286 324 299 354 311 312 321 312 339 286 322 181 49 25 16 8 2 356
332 338 344 353 324 70 342 11 128 155 307 171 148 107 11 264 319 123 20 219 244 226 191 270 236 277 286 345 326 329 330 307 302 294 311 294 240 205 231 356 4 3 357 353 350
325 332 338 325 350 132 344 135 138 259 252 181 96 280 241 34 20 323 45 46 32 168 268 298 350 289 345 92 58 322 329 308 293 282 251 132 351 252 338 32 1 356 354 348 344
313 325 322 267 204 242 147 184 286 222 62 187 179 29 54 283 315 36 7 303 245 249 225 305 129 97 8 193 190 359 350 319 307 276 281 170 327 308 102 44 14 358 351 338 333
296 317 303 251 202 181 165 162 221 225 243 96 143 216 263 2 228 293 196 238 211 234 153 237 218 211 35 199 339 113 167 239 278 302 295 296 220 174 141 20 9 356 341 329 330
284 302 276 243 193 174 209 214 243 205 160 173 221 276 220 266 264 281 223 239 180 198 210 182 240 136 36 270 293 149 219 37 269 210 279 255 239 192 40 351 348 337 334 330 330
258 275 238 200 175 163 198 232 232 200 137 143 270 209 273 207 235 225 212 152 188 212 284 171 260 194 140 34 51 265 109 164 182 279 289 283 298 271 353 341 337 337 334 333 328
197 220 192 168 150 196 220 221 226 204 156 188 226 257 251 274 234 243 239 165 181 157 178 160 237 152 176 201 208 161 178 146 7 251 264 295 290 27 341 341 335 330 331 330 322
164 222 172 155 183 208 226 204 182 189 193 242 231 237 246 232 232 226 233 219 165 164 187 174 177 218 258 311 256 231 197 179 197 225 236 286 277 301 281 339 328 325 327 324 318
196 186 178 188 217 223 237 246 230 180 199 198 225 208 187 197 233 217 194 125 164 174 172 179 200 228 190 163 167 202 188 191 226 247 238 243 259 206 334 322 325 325 327 322 319
135 195 174 209 253 239 236 234 235 210 245 219 221 138 148 202 236 194 178 176 186 188 157 178 204 233 257 303 137 201 202 213 205 221 260 233 271 290 313 322 325 325 327 322 320
158 221 184 208 227 230 230 250 227 222 216 184 216 218 197 206 192 233 189 170 196 196 180 215 234 242 258 272 264 262 259 244 231 237 247 271 279 286 307 326 321 320 322 319 325
204 166 207 260 242 204 210 228 233 227 184 212 231 192 190 219 194 196 184 178 193 180 173 194 228 266 269 262 259 258 258 251 237 242 248 262 273 286 321 316 322 321 324 327 326
199 180 152 231 208 211 219 234 236 220 216 239 207 176 200 216 213 18 117 217 170 162 182 176 184 170 277 87 316 272 243 240 224 216 235 251 263 320 310 319 324 318 328 329 323